Location: Poughquag
(41.6090°N, 73.6820°W)
Time: 12:23:48
(UTC-04:00)

Tiros 1 despin weight - Pass Details

Date: 04 June 2020
Orbit: 593 x 642 km, 48.2° (Epoch: 07 July)

Event Time Altitude Azimuth Distance (km) Brightness Sun altitude
Rises 08:46:08 0° 216° (SW) 2,928 ? 35.5°
Reaches altitude 10° 08:48:35 10° 209° (SSW) 2,019 ? 36.0°
Maximum altitude 08:52:53 38° 141° (SE) 969 ? 36.8°
Drops below altitude 10° 08:57:10 10° 74° (ENE) 2,008 ? 37.6°
Sets 08:59:36 0° 66° (ENE) 2,911 ? 38.0°
